Retour au catalogue

NAVSTAR 86

USA 585

ActifNavigationHEO
NORAD 68791·PAYLOAD·🇺🇸 United States

Lancé Apr 21, 2026 depuis Cape Canaveral Space Force Station

Loading…

Prochains Passages (prochaines 24 heures)

TLE

FraisSource: CelesTrak SupGP

Époque: Sep 14, 2026, 00:00 UTC

1 68791C 26087A   26257.00000000  .00000000  00000+0  00000+0 0  2571
2 68791  54.9550 204.2786 0021238 103.0514 145.9189  2.00578137    11

Suivez NAVSTAR 86 en temps réel avec AllMySat

Download on the App Store